Precipitable_Water
0.81 0.82 0.91 0.81 0.53 0.47 0.39 0.43 0.47 0.38 0.29 0.23 0.24 0.27 0.33 0.43 0.32 0.19 0.54 0.63 0.62 0.65 0.73 0.69 0.70 0.74 0.69 0.74 0.73 0.76 0.79 0.74 0.74 0.76 0.72 0.78 0.76 0.71 0.76 0.75 0.72 0.70 0.68 0.65 0.62 0.61 0.58 0.64 0.71
0.73 0.80 0.79 0.64 0.39 0.31 0.37 0.48 0.41 0.40 0.35 0.31 0.25 0.26 0.31 0.30 0.54 0.48 0.44 0.61 0.64 0.64 0.63 0.64 0.71 0.72 0.65 0.69 0.71 0.71 0.74 0.71 0.75 0.75 0.72 0.71 0.71 0.73 0.70 0.73 0.73 0.71 0.67 0.63 0.59 0.58 0.57 0.67 0.67
0.65 0.80 0.57 0.48 0.39 0.31 0.36 0.47 0.45 0.42 0.41 0.25 0.20 0.30 0.29 0.26 0.44 0.45 0.56 0.60 0.65 0.60 0.60 0.59 0.73 0.67 0.65 0.70 0.67 0.72 0.67 0.70 0.69 0.68 0.68 0.68 0.69 0.73 0.69 0.68 0.67 0.64 0.68 0.64 0.59 0.57 0.60 0.65 0.65
0.53 0.66 0.62 0.39 0.32 0.40 0.44 0.49 0.46 0.43 0.35 0.26 0.21 0.16 0.28 0.46 0.39 0.51 0.58 0.60 0.60 0.57 0.59 0.63 0.68 0.67 0.62 0.65 0.64 0.68 0.69 0.64 0.64 0.64 0.66 0.64 0.62 0.66 0.66 0.63 0.63 0.63 0.60 0.63 0.58 0.53 0.55 0.59 0.62
0.59 0.60 0.39 0.35 0.37 0.44 0.49 0.51 0.47 0.42 0.31 0.23 0.21 0.17 0.19 0.39 0.51 0.53 0.54 0.58 0.53 0.54 0.51 0.60 0.65 0.64 0.62 0.63 0.62 0.63 0.61 0.63 0.59 0.58 0.57 0.55 0.56 0.57 0.58 0.58 0.59 0.59 0.56 0.54 0.55 0.52 0.49 0.54 0.54
0.41 0.54 0.34 0.29 0.37 0.45 0.48 0.48 0.47 0.44 0.37 0.27 0.18 0.18 0.21 0.43 0.44 0.51 0.55 0.53 0.56 0.50 0.53 0.58 0.62 0.65 0.63 0.61 0.62 0.59 0.62 0.58 0.56 0.51 0.49 0.48 0.52 0.50 0.52 0.49 0.46 0.48 0.50 0.50 0.45 0.44 0.46 0.45 0.45
0.36 0.40 0.34 0.37 0.37 0.41 0.44 0.50 0.47 0.45 0.40 0.29 0.26 0.12 0.21 0.31 0.46 0.52 0.52 0.53 0.56 0.55 0.55 0.58 0.60 0.63 0.62 0.61 0.57 0.59 0.55 0.57 0.53 0.51 0.46 0.40 0.38 0.39 0.41 0.40 0.39 0.37 0.40 0.41 0.41 0.41 0.40 0.40 0.42
0.48 0.45 0.36 0.43 0.39 0.38 0.49 0.49 0.51 0.46 0.41 0.40 0.35 0.12 0.14 0.28 0.42 0.51 0.51 0.52 0.55 0.54 0.56 0.55 0.55 0.56 0.56 0.58 0.54 0.51 0.51 0.50 0.52 0.50 0.47 0.38 0.36 0.35 0.36 0.39 0.37 0.37 0.35 0.35 0.39 0.40 0.40 0.42 0.42
0.60 0.33 0.28 0.38 0.43 0.46 0.52 0.47 0.52 0.53 0.46 0.38 0.32 0.26 0.25 0.37 0.43 0.43 0.44 0.48 0.50 0.52 0.54 0.54 0.51 0.51 0.49 0.49 0.49 0.49 0.48 0.48 0.48 0.47 0.45 0.42 0.41 0.37 0.36 0.36 0.40 0.43 0.39 0.40 0.41 0.43 0.44 0.44 0.35
0.46 0.31 0.32 0.46 0.51 0.49 0.51 0.49 0.48 0.47 0.46 0.36 0.31 0.31 0.32 0.37 0.38 0.33 0.33 0.35 0.40 0.43 0.49 0.51 0.50 0.50 0.49 0.47 0.48 0.47 0.45 0.43 0.42 0.43 0.41 0.40 0.37 0.35 0.35 0.38 0.42 0.46 0.46 0.43 0.41 0.38 0.39 0.35 0.32
0.49 0.34 0.41 0.43 0.50 0.55 0.48 0.48 0.51 0.47 0.43 0.40 0.30 0.25 0.27 0.31 0.35 0.32 0.32 0.35 0.35 0.43 0.47 0.48 0.48 0.49 0.50 0.47 0.49 0.49 0.47 0.42 0.38 0.38 0.39 0.38 0.36 0.35 0.32 0.35 0.38 0.37 0.38 0.38 0.36 0.35 0.34 0.33 0.32
0.42 0.48 0.46 0.48 0.51 0.49 0.46 0.51 0.47 0.47 0.49 0.44 0.36 0.29 0.27 0.26 0.28 0.29 0.29 0.32 0.36 0.40 0.43 0.47 0.48 0.46 0.49 0.50 0.48 0.49 0.48 0.44 0.39 0.38 0.39 0.38 0.38 0.37 0.35 0.35 0.36 0.37 0.39 0.38 0.38 0.37 0.36 0.35 0.35
0.41 0.45 0.46 0.47 0.48 0.44 0.44 0.41 0.43 0.43 0.52 0.43 0.35 0.30 0.25 0.27 0.29 0.32 0.32 0.34 0.36 0.38 0.42 0.45 0.48 0.46 0.48 0.49 0.50 0.49 0.47 0.46 0.44 0.43 0.43 0.43 0.42 0.41 0.41 0.38 0.38 0.38 0.40 0.40 0.38 0.38 0.38 0.38 0.37
0.35 0.37 0.39 0.39 0.38 0.39 0.34 0.35 0.33 0.34 0.39 0.30 0.27 0.25 0.25 0.27 0.28 0.31 0.31 0.29 0.32 0.36 0.39 0.45 0.46 0.48 0.48 0.49 0.51 0.49 0.51 0.50 0.48 0.47 0.47 0.48 0.47 0.44 0.43 0.42 0.39 0.40 0.41 0.42 0.41 0.41 0.41 0.41 0.42
0.26 0.21 0.24 0.28 0.32 0.27 0.26 0.19 0.19 0.21 0.25 0.16 0.19 0.22 0.25 0.27 0.32 0.28 0.30 0.28 0.29 0.32 0.38 0.41 0.44 0.49 0.49 0.49 0.51 0.50 0.51 0.52 0.48 0.48 0.51 0.50 0.49 0.48 0.46 0.45 0.44 0.44 0.45 0.45 0.44 0.44 0.44 0.44 0.45
0.20 0.20 0.16 0.21 0.27 0.28 0.26 0.15 0.20 0.24 0.20 0.12 0.14 0.18 0.22 0.26 0.28 0.31 0.33 0.32 0.32 0.33 0.34 0.39 0.44 0.47 0.49 0.50 0.50 0.50 0.51 0.51 0.49 0.49 0.51 0.52 0.52 0.51 0.50 0.48 0.48 0.50 0.49 0.48 0.47 0.47 0.46 0.46 0.45
0.25 0.18 0.18 0.19 0.25 0.26 0.24 0.17 0.21 0.23 0.17 0.15 0.16 0.16 0.18 0.22 0.26 0.30 0.33 0.34 0.34 0.33 0.34 0.36 0.41 0.42 0.46 0.50 0.52 0.52 0.51 0.50 0.48 0.50 0.50 0.52 0.53 0.54 0.52 0.51 0.51 0.53 0.52 0.51 0.51 0.50 0.50 0.48 0.48
0.18 0.17 0.17 0.16 0.21 0.22 0.20 0.17 0.19 0.18 0.17 0.16 0.16 0.16 0.16 0.18 0.19 0.26 0.30 0.33 0.35 0.36 0.37 0.38 0.40 0.42 0.46 0.49 0.51 0.51 0.50 0.49 0.50 0.50 0.50 0.52 0.53 0.54 0.54 0.53 0.53 0.54 0.52 0.52 0.53 0.51 0.52 0.51 0.50
0.21 0.18 0.16 0.18 0.19 0.17 0.14 0.12 0.10 0.12 0.14 0.14 0.15 0.15 0.14 0.14 0.19 0.25 0.29 0.33 0.35 0.35 0.36 0.37 0.39 0.42 0.46 0.45 0.44 0.44 0.43 0.46 0.49 0.50 0.51 0.53 0.54 0.56 0.56 0.55 0.55 0.55 0.53 0.53 0.53 0.53 0.52 0.50 0.53
0.17 0.15 0.13 0.13 0.15 0.13 0.11 0.07 0.08 0.08 0.09 0.11 0.11 0.13 0.13 0.14 0.15 0.19 0.24 0.29 0.32 0.32 0.33 0.36 0.39 0.43 0.45 0.47 0.48 0.48 0.48 0.50 0.50 0.52 0.53 0.55 0.56 0.57 0.57 0.56 0.56 0.57 0.55 0.55 0.55 0.55 0.52 0.53 0.55
0.14 0.12 0.12 0.11 0.13 0.13 0.10 0.04 0.04 0.07 0.09 0.10 0.11 0.11 0.13 0.13 0.14 0.15 0.19 0.23 0.28 0.30 0.31 0.33 0.37 0.41 0.44 0.47 0.51 0.51 0.53 0.51 0.48 0.49 0.50 0.53 0.56 0.57 0.57 0.58 0.58 0.58 0.59 0.57 0.57 0.58 0.56 0.52 0.56
0.10 0.15 0.14 0.12 0.10 0.06 0.11 0.03 0.04 0.05 0.06 0.08 0.09 0.10 0.10 0.12 0.15 0.17 0.18 0.20 0.24 0.27 0.32 0.34 0.37 0.41 0.45 0.49 0.48 0.46 0.43 0.41 0.44 0.47 0.49 0.52 0.55 0.56 0.57 0.58 0.58 0.59 0.60 0.60 0.61 0.62 0.61 0.59 0.54
0.12 0.17 0.14 0.13 0.10 0.10 0.08 0.06 0.04 0.06 0.05 0.06 0.08 0.10 0.11 0.12 0.14 0.15 0.19 0.20 0.23 0.28 0.30 0.33 0.37 0.41 0.46 0.48 0.48 0.46 0.44 0.46 0.48 0.49 0.49 0.51 0.52 0.54 0.55 0.57 0.58 0.59 0.62 0.63 0.64 0.63 0.63 0.63 0.60
0.19 0.14 0.13 0.14 0.12 0.05 0.08 0.08 0.04 0.06 0.08 0.10 0.11 0.12 0.13 0.14 0.14 0.16 0.18 0.23 0.24 0.27 0.31 0.34 0.36 0.39 0.44 0.47 0.46 0.44 0.43 0.44 0.45 0.46 0.47 0.48 0.50 0.53 0.56 0.59 0.61 0.64 0.65 0.65 0.66 0.66 0.66 0.65 0.64
0.16 0.12 0.05 0.04 0.06 0.04 0.13 0.11 0.07 0.11 0.16 0.16 0.15 0.16 0.16 0.16 0.15 0.15 0.17 0.21 0.24 0.26 0.29 0.33 0.36 0.37 0.42 0.44 0.44 0.44 0.42 0.43 0.43 0.44 0.45 0.46 0.48 0.51 0.55 0.60 0.63 0.66 0.68 0.69 0.69 0.68 0.67 0.66 0.64
0.15 0.12 0.06 0.03 0.04 0.07 0.12 0.06 0.10 0.19 0.19 0.22 0.21 0.20 0.20 0.18 0.16 0.16 0.18 0.21 0.23 0.25 0.28 0.31 0.34 0.36 0.40 0.41 0.42 0.43 0.43 0.43 0.44 0.45 0.46 0.47 0.48 0.52 0.58 0.62 0.66 0.69 0.71 0.71 0.71 0.69 0.69 0.68 0.66
0.17 0.13 0.16 0.10 0.11 0.07 0.06 0.07 0.08 0.14 0.20 0.21 0.22 0.23 0.20 0.19 0.19 0.18 0.20 0.22 0.24 0.26 0.27 0.28 0.32 0.34 0.37 0.39 0.40 0.40 0.41 0.42 0.43 0.45 0.47 0.48 0.51 0.55 0.60 0.65 0.68 0.71 0.71 0.72 0.71 0.69 0.68 0.68 0.67
0.21 0.22 0.13 0.13 0.05 0.04 0.05 0.07 0.05 0.12 0.18 0.21 0.21 0.21 0.21 0.23 0.24 0.23 0.20 0.23 0.25 0.27 0.29 0.30 0.31 0.33 0.34 0.37 0.39 0.39 0.39 0.41 0.43 0.45 0.45 0.47 0.51 0.57 0.62 0.66 0.69 0.71 0.71 0.71 0.71 0.70 0.70 0.68 0.68
0.20 0.18 0.18 0.17 0.13 0.07 0.05 0.05 0.13 0.21 0.19 0.19 0.23 0.25 0.24 0.25 0.24 0.24 0.24 0.24 0.26 0.28 0.29 0.30 0.31 0.33 0.34 0.36 0.37 0.38 0.38 0.40 0.42 0.42 0.44 0.46 0.51 0.57 0.62 0.67 0.70 0.71 0.70 0.72 0.71 0.70 0.70 0.68 0.68
0.26 0.20 0.20 0.14 0.12 0.14 0.11 0.07 0.14 0.15 0.18 0.21 0.23 0.26 0.27 0.26 0.26 0.26 0.25 0.25 0.25 0.25 0.28 0.30 0.31 0.33 0.35 0.37 0.37 0.37 0.38 0.39 0.40 0.41 0.44 0.47 0.50 0.58 0.63 0.68 0.70 0.71 0.72 0.73 0.72 0.70 0.70 0.68 0.66
Wind_Speed
13 12 9 8 6 5 6 6 4 4 3 3 3 4 4 2 3 3 4 6 7 7 6 6 6 6 6 7 7 8 9 9 10 10 10 11 11 11 12 11 12 12 12 13 13 13 13 13 13
14 12 10 8 7 6 8 6 5 4 3 2 2 3 3 4 3 4 7 7 8 7 7 7 6 6 6 6 7 8 8 9 9 10 11 11 11 12 12 12 13 13 13 13 14 14 14 14 14
14 12 10 9 8 9 8 7 5 3 3 3 3 3 5 5 5 7 6 9 9 7 7 7 6 6 6 6 6 6 7 7 8 8 9 10 11 12 12 13 14 14 15 16 17 17 17 17 17
13 12 11 10 10 9 8 7 5 3 4 4 4 4 5 6 6 8 8 9 9 8 8 7 6 6 6 6 6 6 6 6 7 8 9 9 10 11 13 13 14 15 16 16 17 18 18 18 18
13 12 11 11 11 9 8 8 6 4 3 3 5 5 6 6 7 8 10 10 9 8 8 7 7 7 6 6 6 6 7 7 7 8 9 10 11 12 13 14 14 15 15 16 16 16 16 16 16
12 13 11 13 12 10 9 8 7 4 3 4 4 7 7 7 8 9 10 10 10 9 9 8 8 8 8 8 8 8 8 9 9 10 11 12 12 13 13 13 14 14 14 14 14 14 14 15 15
13 12 14 12 13 11 10 9 8 6 4 5 5 6 7 9 9 10 11 11 11 10 10 9 9 9 9 9 9 10 10 11 11 11 12 12 11 11 12 12 12 12 12 13 13 13 13 13 13
12 12 12 12 14 13 11 10 8 7 6 4 6 7 7 9 11 12 12 12 12 11 11 10 10 10 10 10 10 10 10 10 10 10 10 10 10 10 10 10 10 11 11 11 11 11 11 12 12
11 10 12 13 14 13 12 11 8 7 5 7 8 8 8 10 12 13 13 13 13 12 11 10 10 10 10 10 9 9 9 9 9 9 9 9 9 8 8 8 8 9 9 9 9 9 10 10 11
10 11 13 13 14 14 14 12 11 8 7 8 8 9 9 12 14 15 15 14 13 13 12 11 10 10 10 9 9 9 8 8 8 8 8 7 7 6 6 6 6 7 7 7 8 8 9 9 10
9 12 13 12 13 15 15 14 13 10 10 10 11 11 12 13 15 16 15 15 15 13 12 12 11 10 10 9 9 8 8 7 7 6 6 5 5 5 5 5 5 5 6 6 7 8 9 9 10
8 11 13 12 13 13 15 15 15 14 13 10 12 12 14 16 17 17 16 16 15 14 13 12 11 10 10 9 8 8 7 7 6 5 5 4 3 3 3 4 4 5 5 6 7 8 8 9 10
8 9 11 13 14 15 15 18 17 16 16 13 12 14 17 18 18 17 17 16 15 15 14 13 11 11 10 9 9 8 7 6 5 4 3 3 2 2 3 3 4 4 5 6 7 8 8 9 10
6 7 10 12 14 15 15 17 15 15 15 15 16 17 18 19 19 17 17 16 16 15 15 13 12 11 11 10 9 8 7 6 5 4 3 2 1 1 2 3 4 4 5 6 7 8 9 10 10
5 6 7 9 11 13 13 16 18 17 16 17 18 18 19 20 19 19 18 17 17 16 15 14 13 12 12 11 10 9 8 6 5 5 3 2 1 0 1 3 4 4 5 7 7 8 9 10 11
2 2 3 5 6 8 10 14 14 13 14 18 19 19 19 20 20 19 18 18 17 16 16 15 14 13 12 12 11 10 9 8 7 6 4 3 2 1 1 2 4 5 6 7 8 8 9 10 11
2 3 4 5 6 7 10 12 10 11 15 16 18 20 20 20 20 20 20 19 18 18 17 16 16 15 14 13 12 11 10 9 8 7 5 4 3 2 1 2 4 6 7 7 8 9 9 11 12
2 2 4 6 6 8 11 16 15 16 16 17 18 19 20 20 22 21 21 20 19 19 18 18 17 16 15 14 13 11 11 10 9 8 6 5 4 2 1 2 4 5 7 8 9 9 10 11 12
2 3 5 6 8 8 10 13 16 16 17 19 20 20 21 22 21 21 21 21 20 20 19 19 18 18 17 16 14 13 12 11 10 9 7 6 5 3 1 1 3 5 6 8 9 10 11 12 13
4 5 6 7 5 6 9 16 18 18 18 20 22 22 22 20 21 21 21 21 21 21 21 21 20 19 19 18 16 15 13 12 10 9 8 7 5 3 2 1 3 5 6 8 9 10 11 12 13
6 7 7 8 9 8 10 11 9 10 14 18 21 22 21 22 21 21 21 21 21 21 22 21 21 20 20 19 18 16 14 13 11 10 8 7 6 4 3 3 4 5 6 8 9 10 11 12 13
8 7 8 9 7 8 7 9 10 10 13 16 18 20 22 21 21 21 21 21 21 21 21 21 21 21 21 20 20 19 17 14 12 10 8 7 6 5 5 5 5 6 7 9 10 11 12 12 14
10 8 9 9 9 9 8 6 11 9 10 12 16 19 21 22 22 22 22 21 21 21 21 21 22 21 21 22 21 20 18 16 14 12 10 8 7 6 6 6 7 8 9 10 11 12 12 13 15
9 9 9 8 8 7 8 7 8 7 9 11 13 14 18 21 22 22 22 21 21 21 21 21 22 22 22 22 22 21 20 18 16 14 12 10 9 8 8 9 9 10 10 11 12 13 13 14 16
9 9 10 8 7 9 7 8 13 11 10 12 15 16 16 18 21 22 22 22 22 22 23 23 23 23 23 23 23 23 21 20 18 16 15 13 12 11 11 11 11 11 12 12 13 14 15 16 17
9 9 8 9 8 10 8 11 9 9 9 10 13 16 17 16 19 22 23 23 24 24 24 24 24 24 24 24 24 23 23 21 20 19 17 16 14 13 12 12 12 13 13 13 14 14 15 17 18
9 9 10 8 10 9 11 12 14 9 8 8 9 9 12 14 17 22 23 24 24 24 25 26 26 26 26 26 25 25 24 24 22 21 19 18 17 16 15 14 14 14 14 14 14 15 17 18 19
11 10 7 9 10 11 11 12 12 9 8 7 5 5 8 12 15 19 23 24 25 26 26 27 28 28 27 27 27 26 26 26 25 23 22 21 20 19 18 17 16 15 15 15 16 17 18 19 20
10 12 10 10 10 11 11 13 13 11 9 7 7 6 8 9 11 15 21 24 25 26 27 28 29 29 29 29 28 28 28 27 26 26 25 24 22 21 20 19 18 17 17 17 17 18 19 20 22
13 14 13 12 14 14 13 17 16 17 15 11 11 10 11 12 13 13 18 23 26 27 28 29 30 30 30 30 30 30 29 29 28 28 27 26 25 24 23 21 20 20 19 19 19 20 21 22 23
Wind_Direction
260 260 253 246 232 227 233 237 242 257 273 272 248 213 210 207 198 199 157 152 146 146 141 132 126 120 112 100 94 91 90 87 86 83 82 79 78 76 74 71 68 66 62 59 58 58 59 58 54
251 247 241 234 224 227 235 230 235 252 247 205 225 220 211 212 182 161 152 162 153 148 144 137 132 126 122 114 100 100 95 91 88 86 84 82 79 76 75 72 69 67 65 63 61 62 64 60 58
240 238 232 224 222 218 223 224 222 248 216 244 230 217 195 197 183 172 170 161 156 152 151 145 138 133 127 124 113 107 104 98 95 90 87 84 81 78 76 75 74 73 70 69 68 68 70 69 65
234 232 230 221 223 225 221 217 213 213 243 244 216 204 203 192 180 174 168 164 161 158 157 153 148 141 136 130 124 117 112 108 103 98 91 88 84 82 82 80 77 75 74 73 72 71 71 68 65
229 225 223 221 226 227 224 211 204 218 233 222 210 207 201 188 174 171 168 168 168 164 160 155 150 145 139 134 128 124 119 113 108 101 96 94 92 89 86 83 80 78 76 73 71 69 67 65 63
224 219 220 221 223 224 219 209 206 221 231 222 216 201 203 189 180 177 174 173 169 163 159 154 149 143 137 129 126 120 117 114 108 106 103 101 97 93 89 85 80 77 73 71 69 66 64 61 58
214 217 219 219 220 221 215 204 213 217 224 236 209 200 204 197 191 183 179 173 168 164 159 153 148 143 136 130 124 121 116 114 112 109 105 101 98 95 89 82 76 74 72 68 64 62 59 55 51
212 213 215 221 215 219 211 211 220 213 236 234 208 209 209 198 189 183 177 174 170 165 161 156 149 145 140 135 129 125 122 118 114 111 107 104 98 93 86 80 75 69 66 64 61 56 52 47 43
211 214 217 219 208 218 212 216 221 228 229 232 218 212 212 188 183 180 177 176 174 172 167 161 156 153 148 143 137 132 127 122 119 115 110 105 99 92 84 77 71 65 61 57 52 47 41 36 33
213 212 218 216 219 222 219 220 218 225 236 238 230 217 203 190 183 181 182 181 179 177 173 167 161 157 154 150 145 136 133 128 124 120 114 107 98 87 78 72 63 57 50 45 40 33 31 26 23
218 219 223 226 227 226 222 227 223 227 243 235 224 213 200 192 186 185 186 185 183 180 177 173 169 165 161 155 152 146 139 135 131 127 121 111 98 83 69 61 53 42 36 31 26 23 20 16 13
232 232 230 233 230 227 227 224 233 234 244 237 227 211 198 190 191 190 188 187 185 184 185 181 177 173 170 167 163 159 152 146 141 135 129 117 98 75 57 46 36 29 25 21 17 13 10 7 5
237 239 238 238 235 234 232 233 238 241 247 236 219 206 198 195 194 194 193 191 191 191 190 188 186 185 181 178 175 171 168 163 159 152 145 132 108 69 44 30 25 22 17 12 7 5 2 1 359
248 248 250 242 236 234 234 237 236 244 240 223 214 207 200 198 197 193 194 195 195 197 197 196 194 193 190 188 188 187 186 185 181 179 173 163 139 57 38 28 20 11 6 1 358 357 355 355 352
258 263 257 234 231 233 235 243 237 242 234 219 212 206 204 202 197 198 199 200 201 201 202 202 201 200 199 200 200 200 199 199 199 200 198 197 193 81 16 10 9 3 360 355 352 350 350 349 347
267 253 249 222 213 229 221 241 241 233 215 214 210 207 206 204 203 204 205 205 205 206 207 207 207 207 207 207 206 207 207 208 208 207 206 208 210 212 34 23 14 5 358 353 351 350 348 347 347
320 241 234 260 223 227 222 241 232 215 207 213 210 209 207 208 209 209 210 211 211 212 212 212 212 212 212 211 210 211 211 210 207 208 207 200 185 158 91 35 19 15 12 6 359 354 352 351 350
265 279 250 245 255 246 245 246 242 229 220 218 212 209 209 210 213 214 214 215 216 217 217 217 216 216 214 213 211 211 209 207 205 202 195 187 177 162 108 39 25 20 18 15 11 3 359 354 353
281 266 267 263 274 262 246 245 244 236 219 219 216 213 213 215 217 217 218 218 219 220 219 218 217 217 214 212 209 207 204 201 196 195 192 190 189 188 181 12 7 7 7 6 5 5 2 359 357
265 288 288 285 276 263 271 262 252 237 222 217 217 217 217 216 217 218 219 220 221 221 221 220 219 217 214 211 207 204 200 198 196 193 196 197 197 203 226 307 344 350 355 356 357 357 357 356 356
276 271 279 274 294 274 284 265 241 224 218 219 220 220 220 219 219 220 220 220 221 221 219 218 216 214 211 206 203 200 197 195 194 195 198 198 206 220 243 283 316 331 339 343 346 347 348 349 351
279 271 277 285 299 273 294 260 252 235 233 224 224 222 223 221 222 221 220 220 219 218 216 213 211 208 206 204 202 200 200 199 200 199 200 205 216 232 254 279 301 316 325 329 332 335 336 339 340
259 279 281 281 278 282 273 247 241 242 237 236 232 229 229 226 224 222 221 219 217 214 211 210 208 207 206 204 204 204 205 206 207 209 214 221 230 245 264 282 296 307 313 319 322 325 327 329 332
268 275 290 283 271 267 254 222 241 220 225 242 232 231 231 228 224 222 220 217 215 213 211 209 207 207 207 207 208 208 209 210 213 219 224 231 241 255 268 280 290 298 304 310 315 317 320 323 325
270 283 283 284 277 244 246 240 238 252 252 239 243 243 237 231 224 221 219 217 216 215 213 211 210 210 210 211 212 213 215 217 221 225 230 238 248 259 269 279 287 293 298 304 310 313 316 319 321
263 251 250 262 263 262 252 233 228 224 260 262 251 244 240 236 226 222 221 220 219 218 216 215 215 215 215 216 217 219 221 224 228 231 237 244 251 259 269 276 283 288 293 299 304 310 313 316 318
259 255 258 259 269 266 249 252 264 240 253 282 273 258 245 239 235 229 224 223 223 222 221 220 220 220 220 221 222 225 227 229 232 236 241 247 253 259 265 272 279 284 288 294 300 306 310 313 316
255 250 268 272 261 261 256 248 234 254 270 285 310 277 258 247 247 238 230 228 227 227 226 224 224 224 224 225 227 229 231 233 236 239 243 248 253 257 263 269 274 278 284 290 296 302 306 310 314
264 262 262 257 252 252 258 247 232 237 247 266 266 272 277 258 259 247 235 232 231 231 229 228 227 227 228 229 230 232 234 236 238 242 245 249 252 256 260 265 270 274 280 286 292 298 302 306 310
262 258 253 251 257 258 255 253 251 250 251 253 261 274 275 261 263 259 246 237 235 234 232 231 230 230 231 232 233 235 237 239 241 243 246 249 252 255 258 262 266 271 276 282 289 295 299 303 307